This is the latest recevied weather packets stored in our database for station/object K9RCP-20. If no packets are shown the sender has not sent any weather packets the latest 10 day(s).
| Time | Temp. | Humidity | Pressure | Rain* | Wind** | Luminosity | Snow |
|---|---|---|---|---|---|---|---|
| 1788575231 | 15.56° C | 87% | 1011.6 hPa | 0 mm | - | 24 W/m² | - |
| 1788574927 | 15.56° C | 86% | 1011.8 hPa | 0 mm | - | 28 W/m² | - |
| 1788574621 | 15.56° C | 85% | 1011.6 hPa | 0 mm | - | 33 W/m² | - |
| 1788574316 | 15.56° C | 85% | 1011.7 hPa | 0 mm | - | 33 W/m² | - |
| 1788574011 | 15.56° C | 84% | 1011.6 hPa | 0 mm | - | 34 W/m² | - |
| 1788573706 | 15.56° C | 82% | 1011.6 hPa | 0 mm | - | 33 W/m² | - |
| 1788573404 | 15.56° C | 82% | 1011.6 hPa | 0 mm | - | 32 W/m² | - |
| 1788573100 | 15.56° C | 83% | 1011.4 hPa | 0 mm | - | 32 W/m² | - |
| 1788572792 | 15.56° C | 83% | 1011.4 hPa | 0 mm | - | 32 W/m² | - |
| 1788572488 | 16.11° C | 83% | 1011.3 hPa | 0 mm | - | 32 W/m² | - |
| 1788572185 | 16.11° C | 83% | 1011.5 hPa | 0 mm | - | 32 W/m² | - |
| 1788571881 | 16.11° C | 83% | 1011.3 hPa | 0 mm | - | 32 W/m² | - |
| 1788571580 | 16.11° C | 84% | 1011.4 hPa | 0 mm | - | 30 W/m² | - |
| 1788571277 | 16.11° C | 85% | 1011.3 hPa | 0 mm | - | 29 W/m² | - |
| 1788570973 | 16.11° C | 81% | 1011.3 hPa | 0 mm | - | 31 W/m² | - |
| 1788570669 | 16.11° C | 81% | 1011.1 hPa | 0 mm | - | 34 W/m² | - |
| 1788569455 | 16.67° C | 79% | 1011.3 hPa | 0 mm | - | 78 W/m² | - |
| 1788569149 | 16.67° C | 79% | 1011.1 hPa | 0 mm | - | 78 W/m² | - |
| 1788567014 | 16.67° C | 84% | 1011.3 hPa | 0 mm | - | 298 W/m² | - |
| 1788566710 | 16.67° C | 84% | 1011.2 hPa | 0 mm | - | 298 W/m² | - |
| 1788566406 | 16.67° C | 85% | 1011.3 hPa | 0 mm | - | 236 W/m² | - |
| 1788566101 | 16.11° C | 87% | 1011.2 hPa | 0 mm | - | 140 W/m² | - |
| 1788565795 | 16.11° C | 86% | 1011.3 hPa | 0 mm | - | 106 W/m² | - |
| 1788565495 | 15.56° C | 86% | 1011.3 hPa | 0 mm | - | 144 W/m² | - |
| 1788565191 | 16.11° C | 87% | 1011.2 hPa | 0 mm | - | 165 W/m² | - |
* Rain latest hour (hover to see other rain measurements)
** Current wind speed in m/s (hover to see current wind gust speed)